User: anonymous   Login
Location: Fort Wayne
(41.1310°N, 85.1290°W)
Time: 18:02:20
(UTC-04:00)
Language:

Cosmos 2227 Rocket - Orbit

View from above orbital plane
View from above orbital plane
View from above satellite
View from above satellite

Ground track
Ground track

The orbit data is extracted from the following two-line orbital elements,

1 22285U 92093B   17229.94907858 -.00000294 +00000-0 -12719-3 0  9993
2 22285 071.0211 082.7222 0003638 359.5669 000.5450 14.15012743270998
Epoch (UTC): 17 August 2017 22:46:40
Eccentricity: 0.0003638
inclination: 71.0211°
perigee height: 839 km
apogee height: 845 km
right ascension of ascending node: 82.7222°
argument of perigee: 359.5669°
revolutions per day: 14.15012743
mean anomaly at epoch: 0.5450°
orbit number at epoch: 27099

The dashed part of the orbit path shows where the satellite is in the earth's shadow,  

DLR